Miscellaneous Local Product
Issued by NWS North Platte, NE

Home | Current Version | Previous Version | Text Only | Print | Product List | Glossary On
Versions: 1 2 3 4 5 6 7 8 9 10 11 12 13 14 15 16 17 18 19 20 21 22 23 24 25 26 27 28 29 30 31 32 33 34 35 36 37 38 39 40 41 42 43 44 45 46 47 48 49 50
000
AXUS43 KLBF 040310
MISLBF


WESTERN AND NORTH CENTRAL NEBRASKA HOURLY WEATHER ROUNDUP
NATIONAL WEATHER SERVICE NORTH PLATTE NE
1000 PM CDT THU SEP 03 2015

NOTE: "FAIR" INDICATES FEW OR NO CLOUDS BELOW 12,000 FEET WITH NO
SIGNIFICANT WEATHER AND/OR OBSTRUCTIONS TO VISIBILITY.

NOTE: STATIONS NOT REPORTING VARIABLES SUCH AS SKY/WEATHER OR
PRESSURE ARE PROVIDED BY THE NEBRASKA DEPARTMENT OF
ROADS...RAWS...AND APRS NETWORKS...AND ARE NOT UNDER
NATIONAL WEATHER SERVICE QUALITY CONTROL.

...OBSERVATIONS IN AND NEAR THE EASTERN PANHANDLE OF NEBRASKA...

CITY           SKY/WX    TMP DP  RH WIND       PRES   REMARKS
PINE RIDGE     CLOUDY    79  49  34 S10G17    29.83S
CHADRON        CLOUDY    81  46  29 S16G25    29.82R
ALLIANCE       CLOUDY    75  52  44 W12       29.87F
SIDNEY         LGT RAIN  73  51  46 W13       29.95R
CRESCENT LAKE    N/A     76  49  38 N8          N/A
BIG SPRINGS      N/A     75  62  64 SW5         N/A
$$

...OBSERVATIONS IN NORTH CENTRAL NEBRASKA...

CITY           SKY/WX    TMP DP  RH WIND       PRES   REMARKS
VALENTINE      CLOUDY    77  57  50 CALM      29.78R
THEDFORD       CLOUDY    79  57  47 CALM      29.81R
AINSWORTH      CLOUDY    79  64  60 S5        29.80R
O`NEILL        PTCLDY    79  70  73 SE7       29.79R
ORD            MOCLDY    82  65  56 SE9       29.77R
BROKEN BOW     CLOUDY    81  63  54 SE9       29.79R
SPRINGVIEW       N/A     77  69  76 CALM        N/A
SARGENT          N/A     77  66  68 CALM        N/A
CHAMBERS         N/A     77  69  76 MISG        N/A
EWING            N/A     76  67  75 CALM        N/A
$$

...OBSERVATIONS IN SOUTHWEST NEBRASKA AND FAR NORTHEAST COLORADO...

CITY           SKY/WX    TMP DP  RH WIND       PRES   REMARKS
WRAY           RAIN      67  61  79 NW15      29.88R
HOLYOKE        TSTM      73  57  56 NW5       29.90R
IMPERIAL       CLOUDY    80  55  42 W12       29.83R
OGALLALA       CLOUDY    78  57  48 NE3       29.82R THUNDER
NORTH PLATTE   CLOUDY    75  67  76 E7        29.78R
MCCOOK         CLOUDY    86  58  38 S13       29.77R
LEXINGTON      CLOUDY    82  60  47 S10       29.79R
PAXTON           N/A     77  65  66 CALM        N/A
BRADY            N/A     79  64  59 CALM        N/A
CALLAWAY         N/A     74  67  79 S8          N/A
$$

...OBSERVATIONS IN CENTRAL LINCOLN COUNTY AREA...

CITY           SKY/WX    TMP DP  RH WIND       PRES   REMARKS
N.P. AIRPORT   CLOUDY    75  67  76 E7        29.78R
N.P. DOWNTOWN    N/A     81  67  62 CALM        N/A
N.P. HILLCREST   N/A     82  64  53 SE9         N/A
$$

...SOME OBSERVATIONS FROM AROUND THE REGION...

CITY           SKY/WX    TMP DP  RH WIND       PRES   REMARKS
DENVER         PTCLDY    60  57  89 S10       30.02R
LARAMIE        PTCLDY    50 N/A N/A SW7       30.12F
CHEYENNE       MOCLDY    60  48  64 W9        30.04S
SCOTTSBLUFF    CLOUDY    73  55  53 W8        29.93R
RAPID CITY     MOCLDY    81  51  35 S24G36    29.78R
PIERRE         CLOUDY    81  70  69 SE14      29.70R
WINNER         FAIR      80  69  69 SE12      29.74R
SIOUX FALLS    MOCLDY    80  72  76 SE9       29.82R
OMAHA          CLEAR     81  71  71 SE13      29.84R
GRAND ISLAND   MOCLDY    80  65  59 S14       29.81R
KANSAS CITY    CLEAR     73  67  81 S9        29.91R
WICHITA        CLOUDY    81  66  60 SE14      29.87R
HAYS           CLOUDY    88  57  35 S17G23    29.81R
LIBERAL        MOCLDY    82  54  36 S12       29.88R
GOODLAND       CLOUDY    81  53  37 S13       29.83R
$$



USA.gov is the U.S. government's official web portal to all federal, state and local government web resources and services.